Language: 


Des rapports , des résumés tant et plus, au choix de chacun....


Données statistiques de la station
Quotidien Rapport Aout 17, 2017 Unités:  Anglais    Métrique   les deux
« Précédent Jour
Suivant Jour »
Quotidien Hebdomadaire Mensuel Annuel Actuel
  Haut: Bas: Moyen:
Température: 73 °F 32 °F 63.3 °F
Pt de rosée: 68 °F 55.4 °F 61.3 °F
Humidité: 97 % 0 % 79 %
Vitesse du vent: 15.4 mph 0 mph 4.7 mph
Rafales: 15.9 mph - -
Vent:- - SSW
Pression: 30.1 in 0 in -
Précipitation: 0.15 in    
Historical Graphs
 
 
Données statistiques pour Aout 17, 2017
Heure Température Point de rosée Pression Vent Vitesse du vent Refales Humidité Pluie (taux horaire)
00:04 61.3 °F 57.2 °F 30 in Calm   4 mph 84 % 0 in
00:09 61.3 °F 57.2 °F 30 in Calm   4 mph 84 % 0 in
00:14 61.3 °F 57.2 °F 30 in Calm   2.2 mph 84 % 0 in
00:19 61.3 °F 57.2 °F 30 in Calm   2.7 mph 84 % 0 in
00:24 61.3 °F 57.2 °F 30 in Calm   2.7 mph 84 % 0 in
00:29 61.3 °F 57.2 °F 30 in SE 2.5 mph 6.5 mph 84 % 0 in
00:34 61.5 °F 55.4 °F 30 in ESE 3.4 mph 6.5 mph 83 % 0 in
00:39 61.7 °F 57.2 °F 30 in Calm   5.4 mph 83 % 0 in
00:44 61.7 °F 57.2 °F 30.1 in SE 1.6 mph 5.4 mph 83 % 0 in
00:49 61.7 °F 57.2 °F 30.1 in Calm   4 mph 83 % 0 in
00:54 61.7 °F 57.2 °F 30.1 in SE 2.5 mph 4.9 mph 82 % 0 in
00:59 61.9 °F 57.2 °F 30 in SSE 3.8 mph 6.9 mph 82 % 0 in
01:05 62.4 °F 57.2 °F 30 in ESE 4 mph 6.9 mph 82 % 0 in
01:10 62.6 °F 57.2 °F 30 in Calm   5.8 mph 81 % 0 in
01:15 62.8 °F 57.2 °F 30 in SE 6.3 mph 6.3 mph 80 % 0 in
01:20 63 °F 57.2 °F 30 in SE 5.8 mph 6.3 mph 80 % 0 in
01:25 63 °F 57.2 °F 30 in ESE 2.9 mph 12.3 mph 79 % 0 in
01:30 63 °F 55.4 °F 30 in SE 6.3 mph 12.3 mph 78 % 0 in
01:35 63.1 °F 55.4 °F 30 in ESE 4.3 mph 6.5 mph 77 % 0 in
01:40 63.1 °F 55.4 °F 30 in Calm   6.3 mph 77 % 0 in
01:45 63.1 °F 55.4 °F 30 in Calm   5.4 mph 77 % 0 in
01:50 63.3 °F 55.4 °F 30 in SSE 2.7 mph 4.7 mph 76 % 0 in
01:55 63.5 °F 55.4 °F 30 in Calm   4.7 mph 76 % 0 in
02:00 63.5 °F 55.4 °F 30 in Calm   3.4 mph 76 % 0 in
02:05 63.7 °F 55.4 °F 30 in Calm   3.8 mph 76 % 0 in
02:10 63.9 °F 55.4 °F 30 in Calm   3.8 mph 76 % 0 in
02:15 64 °F 55.4 °F 30 in SSE 2.7 mph 4.7 mph 76 % 0 in
02:20 64.2 °F 57.2 °F 30 in SE 5.8 mph 7.2 mph 76 % 0 in
02:25 64.4 °F 57.2 °F 30 in SSE 3.4 mph 7.2 mph 75 % 0 in
02:30 64.6 °F 55.4 °F 30 in South 4 mph 6 mph 74 % 0 in
02:35 64.6 °F 55.4 °F 30 in SSW 6.3 mph 8.7 mph 74 % 0 in
02:41 64.6 °F 55.4 °F 30 in SSE 3.6 mph 8.7 mph 74 % 0 in
02:46 64.6 °F 55.4 °F 30 in Calm   7.8 mph 74 % 0 in
02:51 64.2 °F 55.4 °F 30 in SSE 2.9 mph 3.8 mph 74 % 0 in
02:56 64.2 °F 55.4 °F 30 in South 3.1 mph 4.7 mph 74 % 0 in
03:01 32 °F 55.4 °F 0 in Calm     0 % 0 in
03:06 63.7 °F 55.4 °F 30 in South 0.9 mph 4.3 mph 75 % 0 in
03:11 63.5 °F 55.4 °F 30 in SSE 2.5 mph 6 mph 76 % 0 in
03:16 63.5 °F 55.4 °F 30 in South 1.3 mph 6 mph 76 % 0 in
03:21 63.3 °F 55.4 °F 30 in Calm   3.8 mph 76 % 0 in
03:26 63.3 °F 55.4 °F 30 in Calm   5.6 mph 77 % 0 in
03:32 63.3 °F 55.4 °F 30 in Calm   5.6 mph 77 % 0 in
03:36 63.3 °F 55.4 °F 30 in SSW 2.7 mph 5.8 mph 77 % 0 in
03:42 63.5 °F 57.2 °F 30 in South 3.6 mph 7.2 mph 78 % 0 in
03:47 63.5 °F 57.2 °F 30 in SSE 3.1 mph 7.2 mph 78 % 0 in
03:52 63.5 °F 57.2 °F 30 in South 3.4 mph 7.8 mph 78 % 0 in
03:57 63.5 °F 57.2 °F 30 in SSE 2.5 mph 7.8 mph 78 % 0 in
04:02 63.5 °F 57.2 °F 30 in SSE 3.8 mph 5.6 mph 79 % 0 in
04:07 63.5 °F 57.2 °F 30 in Calm   5.8 mph 79 % 0 in
04:12 63.5 °F 57.2 °F 30 in South 2.5 mph 5.8 mph 79 % 0 in
04:17 63.5 °F 57.2 °F 30 in SW 2.9 mph 7.6 mph 80 % 0 in
04:22 63.5 °F 57.2 °F 30 in South 7.2 mph 7.6 mph 80 % 0 in
04:27 63.5 °F 57.2 °F 30 in SSW 3.4 mph 7.2 mph 81 % 0 in
04:32 63.5 °F 57.2 °F 30 in South 4.3 mph 6 mph 81 % 0 in
04:37 63.5 °F 59 °F 30 in South 3.8 mph 6.3 mph 82 % 0 in
04:42 63.3 °F 57.2 °F 30 in South 2.5 mph 6.3 mph 82 % 0 in
04:47 63.3 °F 57.2 °F 30 in South 4.5 mph 5.4 mph 82 % 0 in
04:52 63.3 °F 57.2 °F 30 in South 4 mph 5.4 mph 82 % 0 in
04:57 63.3 °F 57.2 °F 29.9 in SSE 2.9 mph 6 mph 83 % 0 in
05:02 63.3 °F 57.2 °F 29.9 in South 3.4 mph 6 mph 83 % 0 in
05:07 63.3 °F 57.2 °F 29.9 in Calm   7.2 mph 83 % 0 in
05:14 63.3 °F 59 °F 29.9 in Calm   7.2 mph 84 % 0 in
05:19 63.3 °F 59 °F 29.9 in Calm   5.8 mph 85 % 0 in
05:21 63.3 °F 59 °F 29.9 in SSW 1.1 mph 5.8 mph 84 % 0 in
05:26 63.3 °F 59 °F 29.9 in SSE 5.8 mph 5.8 mph 85 % 0 in
05:31 63.5 °F 59 °F 29.9 in South 5.4 mph 5.8 mph 86 % 0 in
05:33 63.5 °F 59 °F 29.9 in SSW 4.9 mph 6.5 mph 86 % 0 in
05:38 63.7 °F 59 °F 29.9 in SSW 4.3 mph 6.5 mph 86 % 0 in
05:43 63.7 °F 59 °F 29.9 in Calm   6.5 mph 86 % 0 in
05:48 63.9 °F 60.8 °F 29.9 in SW 2.2 mph 5.8 mph 87 % 0 in
05:53 63.9 °F 60.8 °F 29.9 in SSW 3.4 mph 5.8 mph 87 % 0 in
05:58 64 °F 60.8 °F 29.9 in Calm   6 mph 87 % 0 in
06:03 64 °F 60.8 °F 29.9 in SSW 2.7 mph 6 mph 87 % 0 in
06:08 64.2 °F 60.8 °F 29.9 in South 1.6 mph 4 mph 87 % 0 in
06:13 64.2 °F 60.8 °F 29.9 in SSW 3.6 mph 6.3 mph 87 % 0 in
06:18 64.4 °F 60.8 °F 29.9 in Calm   7.4 mph 87 % 0 in
06:23 64.4 °F 60.8 °F 29.9 in South 4.7 mph 7.4 mph 87 % 0 in
06:28 64.4 °F 60.8 °F 29.9 in South 3.6 mph 6.5 mph 86 % 0 in
06:33 64.4 °F 60.8 °F 29.9 in South 3.6 mph 6.5 mph 86 % 0 in
06:38 64.4 °F 60.8 °F 29.9 in South 1.1 mph 6 mph 86 % 0 in
06:43 64.4 °F 60.8 °F 29.9 in SW 2.7 mph 6 mph 86 % 0 in
06:48 64.4 °F 60.8 °F 29.9 in South 3.1 mph 5.4 mph 86 % 0 in
06:53 64.4 °F 60.8 °F 29.9 in Calm   4.9 mph 87 % 0 in
06:58 64.4 °F 60.8 °F 29.9 in South 1.1 mph 4 mph 87 % 0 in
07:04 64.4 °F 60.8 °F 29.9 in Calm   4 mph 87 % 0 in
07:09 64.4 °F 60.8 °F 29.9 in SSE 2.2 mph 3.1 mph 87 % 0 in
07:14 64.4 °F 60.8 °F 29.9 in Calm   4.3 mph 87 % 0 in
07:19 64.4 °F 60.8 °F 29.9 in SSW 3.1 mph 5.6 mph 87 % 0 in
07:24 64.6 °F 60.8 °F 29.9 in Calm   5.6 mph 87 % 0 in
07:29 64.8 °F 60.8 °F 29.9 in Calm   3.1 mph 87 % 0 in
07:34 64.8 °F 60.8 °F 29.9 in SSW 0.9 mph 4.9 mph 87 % 0 in
07:39 64.8 °F 60.8 °F 29.9 in SW 0.9 mph 4.9 mph 87 % 0 in
07:44 64.9 °F 60.8 °F 29.9 in SSW 3.4 mph 4 mph 87 % 0 in
07:46 64.9 °F 60.8 °F 29.9 in SSW 0.9 mph 5.6 mph 87 % 0 in
07:51 65.1 °F 60.8 °F 29.9 in South 2.2 mph 5.6 mph 87 % 0 in
07:56 65.1 °F 60.8 °F 29.9 in SSE 2.7 mph 6 mph 87 % 0 in
08:01 65.3 °F 60.8 °F 29.9 in South 1.6 mph 9.6 mph 86 % 0 in
08:06 65.5 °F 60.8 °F 29.9 in SSE 5.6 mph 9.6 mph 86 % 0 in
08:11 65.5 °F 60.8 °F 29.9 in Calm   6 mph 85 % 0 in
08:16 65.7 °F 60.8 °F 29.9 in South 5.4 mph 6.3 mph 85 % 0 in
08:21 65.8 °F 60.8 °F 29.9 in SSW 4 mph 6.3 mph 85 % 0 in
08:26 65.8 °F 60.8 °F 29.9 in SW 3.4 mph 6.3 mph 84 % 0 in
08:31 65.8 °F 60.8 °F 29.9 in Calm   6.3 mph 84 % 0 in
08:36 65.8 °F 60.8 °F 29.9 in Calm   5.8 mph 84 % 0 in
08:41 65.8 °F 60.8 °F 29.9 in SSW 5.6 mph 7.8 mph 83 % 0 in
08:46 65.8 °F 60.8 °F 29.9 in SSW 5.4 mph 7.8 mph 83 % 0 in
08:51 65.8 °F 60.8 °F 29.9 in WSW 3.1 mph 6.5 mph 83 % 0 in
08:56 65.8 °F 60.8 °F 29.9 in South 7.2 mph 7.2 mph 83 % 0 in
09:01 65.7 °F 60.8 °F 29.9 in South 2.5 mph 7.4 mph 83 % 0 in
09:06 65.7 °F 60.8 °F 29.9 in South 3.4 mph 7.4 mph 83 % 0 in
09:11 65.5 °F 60.8 °F 29.9 in SSW 6 mph 8.1 mph 84 % 0 in
09:16 65.1 °F 60.8 °F 29.9 in SSW 6.5 mph 8.1 mph 85 % 0 in
09:22 64.8 °F 60.8 °F 29.9 in WSW 4.9 mph 8.7 mph 87 % 0 in
09:27 64.4 °F 60.8 °F 29.9 in Calm   8.7 mph 88 % 0 in
09:32 64 °F 60.8 °F 29.9 in SW 5.4 mph 10.3 mph 90 % 0 in
09:37 63.7 °F 60.8 °F 29.9 in SW 4.3 mph 10.3 mph 91 % 0 in
09:42 63.5 °F 60.8 °F 29.9 in SW 3.1 mph 7.6 mph 92 % 0 in
09:47 63.1 °F 60.8 °F 29.9 in WSW 0.9 mph 6.7 mph 93 % 0 in
09:52 63 °F 60.8 °F 29.9 in SSW 4 mph 6.5 mph 93 % 0 in
09:57 63 °F 60.8 °F 29.9 in Calm   6 mph 94 % 0 in
10:02 62.8 °F 60.8 °F 29.9 in SW 5.6 mph 6.5 mph 94 % 0 in
10:07 62.8 °F 60.8 °F 29.9 in Calm   6.5 mph 95 % 0 in
10:12 62.8 °F 60.8 °F 29.9 in SW 4.3 mph 6 mph 95 % 0 in
10:17 62.8 °F 62.6 °F 29.9 in WSW 3.4 mph 6 mph 96 % 0 in
10:22 63 °F 62.6 °F 29.9 in SSW 5.6 mph 5.8 mph 96 % 0 in
10:27 63.1 °F 62.6 °F 29.9 in Calm   5.8 mph 96 % 0 in
10:32 63.5 °F 62.6 °F 29.9 in South 3.8 mph 6 mph 96 % 0 in
10:37 63.7 °F 62.6 °F 29.9 in SSW 4 mph 6 mph 97 % 0 in
10:42 64 °F 62.6 °F 29.9 in SW 3.4 mph 7.8 mph 97 % 0 in
10:47 64 °F 62.6 °F 29.9 in SW 3.8 mph 7.8 mph 97 % 0 in
10:52 64.2 °F 64.4 °F 29.9 in SSW 1.6 mph 6.9 mph 97 % 0 in
10:57 64.2 °F 64.4 °F 29.9 in SW 5.4 mph 8.7 mph 96 % 0 in
11:02 64.2 °F 64.4 °F 29.9 in SSW 7.4 mph 8.7 mph 96 % 0 in
11:07 64.2 °F 64.4 °F 29.9 in WSW 4.3 mph 10.5 mph 96 % 0 in
11:09 64.2 °F 64.4 °F 29.9 in WSW 6 mph 10.5 mph 96 % 0 in
11:14 64.2 °F 64.4 °F 29.9 in SSW 3.4 mph 10.5 mph 96 % 0 in
11:19 64.2 °F 64.4 °F 29.9 in WSW 6 mph 8.5 mph 96 % 0 in
11:24 64.2 °F 64.4 °F 29.9 in WSW 5.6 mph 8.5 mph 96 % 0 in
11:35 32 °F 64.4 °F 0 in WSW 4.3 mph 8.1 mph 0 % 0 in
11:40 32 °F 64.4 °F 29.9 in SW 5.4 mph 9.8 mph 0 % 0 in
11:45 32 °F 64.4 °F 29.9 in SSW 7.4 mph 9.8 mph 0 % 0 in
11:50 32 °F 64.4 °F 29.9 in SW 5.6 mph 8.7 mph 0 % 0 in
11:55 32 °F 64.4 °F 29.9 in WSW 5.4 mph 8.7 mph 0 % 0 in
12:00 32 °F 64.4 °F 29.9 in SW 7.4 mph 8.1 mph 0 % 0 in
12:05 32 °F 64.4 °F 29.9 in SW 4.9 mph 9.8 mph 0 % 0 in
12:10 32 °F 64.4 °F 29.9 in SSW 6.5 mph 9.8 mph 0 % 0 in
12:15 32 °F 64.4 °F 29.9 in SSW 4.5 mph 9.8 mph 0 % 0 in
12:20 32 °F 64.4 °F 29.9 in SSW 7.4 mph 9.8 mph 0 % 0 in
12:25 32 °F 64.4 °F 29.9 in SSW 8.9 mph 9.6 mph 0 % 0 in
12:30 32 °F 64.4 °F 29.9 in SW 8.5 mph 10.1 mph 0 % 0 in
12:35 32 °F 64.4 °F 29.9 in SSW 4.9 mph 10.3 mph 0 % 0 in
12:40 32 °F 64.4 °F 29.9 in South 4.3 mph 10.3 mph 0 % 0 in
12:45 32 °F 64.4 °F 29.9 in SW 2.7 mph 10.3 mph 0 % 0 in
12:50 32 °F 64.4 °F 29.9 in SSW 7.2 mph 10.3 mph 0 % 0 in
12:55 32 °F 64.4 °F 29.9 in SSW 3.4 mph 8.7 mph 0 % 0 in
13:01 67.6 °F 66.2 °F 29.9 in SW 6.5 mph 7.8 mph 93 % 0 in
13:06 67.8 °F 66.2 °F 29.9 in WSW 8.1 mph 10.5 mph 92 % 0 in
13:11 67.8 °F 66.2 °F 29.9 in South 7.8 mph 10.5 mph 92 % 0 in
13:16 67.8 °F 66.2 °F 29.9 in SW 7.8 mph 10.5 mph 92 % 0 in
13:21 67.8 °F 66.2 °F 29.9 in SSW 8.7 mph 9.8 mph 92 % 0 in
13:26 67.8 °F 66.2 °F 29.9 in WSW 7.2 mph 8.9 mph 92 % 0 in
13:31 68.2 °F 66.2 °F 29.9 in West 3.4 mph 9.8 mph 93 % 0 in
13:36 68.2 °F 66.2 °F 29.9 in SW 4 mph 9.8 mph 93 % 0 in
13:41 32 °F 66.2 °F 29.9 in SW 8.7 mph 8.7 mph 0 % 0 in
13:46 32 °F 66.2 °F 29.9 in WSW 8.5 mph 12.5 mph 0 % 0 in
13:51 68.7 °F 66.2 °F 29.9 in SSE 7.2 mph 12.8 mph 92 % 0 in
13:56 68.9 °F 66.2 °F 29.9 in WSW 7.4 mph 12.8 mph 92 % 0 in
14:01 68.9 °F 66.2 °F 29.9 in South 5.6 mph 9.8 mph 92 % 0 in
14:06 68.9 °F 66.2 °F 29.9 in SW 6.3 mph 10.5 mph 92 % 0 in
14:11 68.9 °F 66.2 °F 29.9 in SSW 6.9 mph 10.5 mph 92 % 0 in
14:16 69.1 °F 66.2 °F 29.9 in SW 6.7 mph 10.7 mph 92 % 0 in
14:21 69.1 °F 66.2 °F 29.9 in WSW 5.4 mph 10.7 mph 92 % 0 in
14:22 69.1 °F 66.2 °F 29.9 in SSW 5.8 mph 10.7 mph 92 % 0 in
14:27 69.1 °F 66.2 °F 29.9 in SW 9.8 mph 10.1 mph 92 % 0 in
14:32 69.1 °F 66.2 °F 29.9 in WSW 8.9 mph 11 mph 92 % 0 in
14:37 69.1 °F 66.2 °F 29.9 in SSW 4.7 mph 11 mph 92 % 0 in
14:42 69.1 °F 66.2 °F 29.9 in WSW 4.7 mph 10.5 mph 92 % 0 in
14:47 69.1 °F 66.2 °F 29.9 in South 8.7 mph 13 mph 92 % 0 in
14:52 69.1 °F 66.2 °F 29.9 in SSW 10.3 mph 13 mph 92 % 0 in
14:58 69.1 °F 66.2 °F 29.9 in SW 12.3 mph 12.3 mph 92 % 0 in
15:03 69.1 °F 66.2 °F 29.9 in SSW 7.4 mph 12.3 mph 92 % 0 in
15:08 69.1 °F 66.2 °F 29.9 in WSW 4.3 mph 10.5 mph 92 % 0 in
15:13 69.1 °F 66.2 °F 29.9 in South 3.6 mph 13.2 mph 92 % 0 in
15:14 69.1 °F 66.2 °F 29.9 in WSW 5.6 mph 13.2 mph 92 % 0 in
15:19 68.9 °F 68 °F 29.9 in SW 4 mph 13.2 mph 93 % 0 in
15:24 68.9 °F 68 °F 29.9 in WSW 8.7 mph 8.7 mph 93 % 0 in
15:29 68.9 °F 68 °F 29.9 in South 6 mph 10.1 mph 93 % 0 in
15:34 68.5 °F 66.2 °F 29.9 in South 6.3 mph 10.1 mph 93 % 0 in
15:39 68.5 °F 66.2 °F 29.9 in SW 3.4 mph 8.7 mph 93 % 0.01 in
15:44 68.5 °F 66.2 °F 29.9 in SW 3.4 mph 8.7 mph 93 % 0.02 in
15:49 68.5 °F 66.2 °F 29.9 in SSW 6.5 mph 8.5 mph 93 % 0.02 in
15:54 68.5 °F 66.2 °F 29.9 in SW 6.3 mph 8.5 mph 93 % 0.02 in
15:59 68.5 °F 66.2 °F 29.9 in SSW 7.2 mph 8.5 mph 93 % 0.02 in
16:04 68.5 °F 66.2 °F 29.9 in SSW 7.2 mph 8.5 mph 93 % 0.03 in
16:09 68.5 °F 66.2 °F 29.9 in SSW 7.2 mph 8.5 mph 93 % 0.03 in
16:14 68.5 °F 66.2 °F 29.9 in South 6.5 mph 6.5 mph 93 % 0.03 in
16:19 68.5 °F 66.2 °F 29.9 in SW 6.9 mph 6.9 mph 93 % 0.03 in
16:24 68.5 °F 66.2 °F 29.9 in SSW 3.6 mph 7.2 mph 93 % 0.03 in
16:29 68.5 °F 66.2 °F 29.9 in SW 9.8 mph 9.8 mph 93 % 0.03 in
16:34 68.5 °F 66.2 °F 29.9 in SSW 3.8 mph 9.8 mph 93 % 0.03 in
16:39 68.5 °F 66.2 °F 29.9 in SW 5.8 mph 8.9 mph 93 % 0.02 in
16:44 68.5 °F 66.2 °F 29.9 in SSW 2.5 mph 9.8 mph 93 % 0.01 in
16:49 68.5 °F 66.2 °F 29.9 in SW 4.3 mph 9.8 mph 93 % 0.01 in
16:54 68.5 °F 66.2 °F 29.9 in SW 7.4 mph 8.9 mph 93 % 0.01 in
16:59 68.5 °F 66.2 °F 29.9 in WSW 12.8 mph 15.7 mph 93 % 0 in
17:04 68.5 °F 66.2 °F 29.9 in West 6.3 mph 15.7 mph 93 % 0 in
17:09 68.5 °F 66.2 °F 29.9 in West 10.7 mph 14.5 mph 93 % 0 in
17:14 68.5 °F 66.2 °F 29.9 in SSW 10.5 mph 12.3 mph 93 % 0 in
17:19 68.5 °F 66.2 °F 29.9 in WSW 8.1 mph 14.5 mph 93 % 0 in
17:24 68.5 °F 66.2 °F 29.9 in WSW 10.5 mph 14.5 mph 93 % 0 in
17:27 68.5 °F 66.2 °F 29.9 in SSW 10.7 mph 14.5 mph 93 % 0 in
17:32 68.5 °F 66.2 °F 29.9 in WSW 8.7 mph 14.3 mph 93 % 0 in
17:37 72.7 °F 66.2 °F 29.9 in WSW 12.8 mph 14.8 mph 78 % 0.04 in
17:42 32 °F 66.2 °F 29.9 in WSW 12.1 mph 14.8 mph 0 % 0.04 in
17:47 73 °F 64.4 °F 29.9 in WSW 6.5 mph 12.7 mph 74 % 0.04 in
17:52 72.5 °F 64.4 °F 29.9 in WSW 12.8 mph 13.2 mph 72 % 0.04 in
17:57 72.5 °F 64.4 °F 29.9 in WSW 12.8 mph 13.2 mph 72 % 0.04 in
18:02 71.6 °F 62.6 °F 29.9 in WSW 15.4 mph 15.4 mph 71 % 0.04 in
18:04 71.8 °F 62.6 °F 29.9 in West 12.5 mph 15.4 mph 71 % 0.04 in
18:09 72 °F 62.6 °F 29.9 in WSW 14.5 mph 15.4 mph 72 % 0.04 in
18:14 72.3 °F 62.6 °F 29.9 in WSW 14.5 mph 14.8 mph 72 % 0.04 in
18:19 72.3 °F 62.6 °F 29.9 in WSW 14.5 mph 14.5 mph 71 % 0.04 in
18:24 72 °F 62.6 °F 29.9 in SSW 13.2 mph 15.4 mph 72 % 0.04 in
18:29 72.1 °F 62.6 °F 29.9 in SSW 8.1 mph 15.4 mph 73 % 0.04 in
18:34 72.1 °F 62.6 °F 29.9 in WSW 12.3 mph 13.2 mph 73 % 0.04 in
18:39 72.9 °F 64.4 °F 29.9 in West 8.9 mph 13.2 mph 72 % 0 in
18:40 72.9 °F 64.4 °F 29.9 in West 8.9 mph 13.2 mph 72 % 0 in
18:45 72.7 °F 62.6 °F 29.9 in SSW 8.5 mph 15.9 mph 70 % 0 in
18:50 71.6 °F 60.8 °F 29.9 in WSW 14.5 mph 15.9 mph 68 % 0 in
18:55 70.3 °F 60.8 °F 29.9 in West 9.8 mph 15.9 mph 70 % 0 in
19:00 69.8 °F 60.8 °F 29.9 in WSW 9.2 mph 13 mph 71 % 0 in
19:05 69.8 °F 60.8 °F 29.9 in WSW 7.8 mph 12.1 mph 74 % 0 in
19:10 70 °F 60.8 °F 29.9 in West 10.1 mph 15.4 mph 74 % 0 in
19:15 70.7 °F 62.6 °F 29.9 in SW 3.6 mph 15.4 mph 74 % 0 in
19:20 71.2 °F 62.6 °F 29.9 in WSW 8.5 mph 15.4 mph 74 % 0 in
19:25 71.2 °F 62.6 °F 29.9 in WSW 7.4 mph 9.8 mph 72 % 0 in
19:30 71.2 °F 62.6 °F 29.9 in West 8.5 mph 9.8 mph 72 % 0 in
19:35 70.7 °F 60.8 °F 29.9 in West 13.6 mph 15.2 mph 70 % 0 in
19:41 70.3 °F 60.8 °F 29.9 in West 12.3 mph 15.2 mph 70 % 0 in
19:46 70.2 °F 60.8 °F 29.9 in West 7.6 mph 12.3 mph 71 % 0 in
19:51 69.8 °F 60.8 °F 29.9 in West 9.2 mph 12.3 mph 72 % 0 in
19:56 69.3 °F 60.8 °F 29.9 in SW 7.8 mph 11 mph 73 % 0 in
20:01 68.9 °F 60.8 °F 29.9 in West 9.6 mph 13.2 mph 73 % 0 in
20:06 68.5 °F 60.8 °F 29.9 in WSW 10.5 mph 15.4 mph 74 % 0 in
20:11 68.2 °F 60.8 °F 29.9 in West 13 mph 15.4 mph 75 % 0 in
20:16 67.8 °F 60.8 °F 29.9 in WSW 10.7 mph 13 mph 76 % 0 in
20:21 67.6 °F 59 °F 29.9 in West 7.4 mph 13 mph 76 % 0 in
20:26 67.3 °F 60.8 °F 29.9 in West 6.5 mph 11 mph 77 % 0 in
20:31 67.1 °F 60.8 °F 29.9 in WSW 13 mph 13 mph 77 % 0 in
20:36 66.7 °F 59 °F 29.9 in WSW 6.3 mph 13 mph 78 % 0 in
20:41 66.4 °F 59 °F 29.9 in WSW 8.5 mph 10.5 mph 79 % 0 in
20:46 66.2 °F 59 °F 29.9 in WSW 6.3 mph 10.1 mph 79 % 0 in
20:51 65.8 °F 59 °F 29.9 in WSW 5.4 mph 8.9 mph 80 % 0 in
20:56 65.3 °F 60.8 °F 29.9 in Calm   8.7 mph 82 % 0 in
21:01 65.1 °F 59 °F 29.9 in WSW 5.8 mph 7.8 mph 82 % 0 in
21:06 64.9 °F 59 °F 29.9 in WSW 9.2 mph 9.2 mph 83 % 0 in
21:07 64.9 °F 59 °F 29.9 in West 7.8 mph 9.2 mph 83 % 0 in
21:12 64.9 °F 60.8 °F 29.9 in WSW 6.3 mph 9.2 mph 84 % 0 in
21:17 64.8 °F 60.8 °F 29.9 in WSW 7.4 mph 8.7 mph 84 % 0 in
21:22 64.8 °F 60.8 °F 29.9 in WSW 7.8 mph 8.7 mph 85 % 0 in
21:27 64.6 °F 60.8 °F 29.9 in SSW 4.7 mph 9.8 mph 85 % 0 in
21:33 64.4 °F 60.8 °F 29.9 in SW 4.7 mph 9.8 mph 85 % 0 in
21:38 64.2 °F 60.8 °F 29.9 in SW 6.5 mph 6.5 mph 86 % 0 in
21:43 64.2 °F 60.8 °F 29.9 in Calm   6.5 mph 86 % 0 in
21:48 63.9 °F 59 °F 29.9 in West 5.6 mph 7.6 mph 86 % 0 in
21:53 63.9 °F 60.8 °F 29.9 in WSW 3.6 mph 7.6 mph 87 % 0 in
21:58 63.9 °F 60.8 °F 29.9 in SW 3.4 mph 7.4 mph 87 % 0 in
22:03 63.7 °F 60.8 °F 29.9 in Calm   6.3 mph 87 % 0 in
22:08 63.7 °F 60.8 °F 29.9 in WSW 4 mph 6.3 mph 88 % 0 in
22:13 63.5 °F 60.8 °F 29.9 in WSW 0.9 mph 6.3 mph 88 % 0 in
22:18 63.3 °F 59 °F 29.9 in Calm   6 mph 88 % 0 in
22:23 63.3 °F 59 °F 29.9 in SSW 5.4 mph 6 mph 88 % 0 in
22:28 63.3 °F 60.8 °F 29.9 in SW 2.7 mph 5.4 mph 89 % 0 in
22:33 63.1 °F 60.8 °F 29.9 in Calm   5.4 mph 89 % 0 in
22:38 63 °F 60.8 °F 29.9 in Calm   2.7 mph 89 % 0 in
22:43 62.8 °F 59 °F 29.9 in Calm     89 % 0 in
22:48 62.6 °F 59 °F 29.9 in Calm     89 % 0 in
22:53 62.6 °F 59 °F 29.9 in Calm   3.4 mph 90 % 0 in
22:58 62.2 °F 59 °F 29.9 in Calm   3.4 mph 90 % 0 in
23:03 62.2 °F 59 °F 29.9 in Calm   2.9 mph 90 % 0 in
23:08 62.2 °F 59 °F 29.9 in Calm   2.9 mph 90 % 0 in
23:13 61.9 °F 59 °F 29.9 in Calm   2.7 mph 91 % 0 in
23:18 61.9 °F 59 °F 29.9 in Calm   3.6 mph 92 % 0 in
23:23 61.9 °F 59 °F 29.9 in Calm   3.6 mph 92 % 0 in
23:29 61.9 °F 59 °F 29.9 in SW 2.5 mph 5.8 mph 92 % 0 in
23:34 61.9 °F 60.8 °F 29.9 in Calm   5.8 mph 93 % 0 in
23:39 61.7 °F 60.8 °F 29.9 in South 1.1 mph 4.9 mph 93 % 0 in
23:44 61.7 °F 60.8 °F 29.9 in Calm   2.5 mph 93 % 0 in
23:49 61.3 °F 59 °F 29.9 in SSW 2.7 mph 2.9 mph 93 % 0 in
23:54 61.2 °F 59 °F 29.9 in Calm   2.9 mph 93 % 0 in
23:59 61.2 °F 59 °F 29.9 in Calm   2.2 mph 93 % 0 in
Le Gheer Warneton
Courtoisie de Weather Underground - 2.25 mb

Mise a jour : 16-12-17 15:49:11
Généré par Cumulus 1.9.4 (1099)